Regional Weather Roundup
Issued by NWS

Home | Current Version | Previous Version | Graphics & Text | Print | Product List | Glossary On
Versions: 1 2 3 4 5 6 7 8 9 10 11 12 13 14 15 16 17 18 19 20 21 22 23 24 25 26 27 28 29 30 31 32 33 34 35 36 37 38 39 40 41 42 43 44 45 46 47 48 49 50
000
ASUS43 KMPX 250010
RWRMN
WEATHER ROUNDUP FOR MINNESOTA
NATIONAL WEATHER SERVICE TWIN CITIES/CHANHASSEN MN
600 PM CST FRI FEB 24 2017


NOTE: "FAIR" INDICATES FEW OR NO CLOUDS BELOW 12,000 FEET WITH NO
SIGNIFICANT WEATHER AND/OR OBSTRUCTIONS TO VISIBILITY. N/A MEANS
CURRENT SKY AND/OR WEATHER CONDITIONS ARE NOT AVAILABLE.

MNZ060>063-068>070-250100-
   Twin Cities Metro

CITY           SKY/WX    TMP DP  RH WIND       PRES   REMARKS
TWIN CITIES    CLOUDY    25  11  55 N21G28    29.85R WCI  11
6HR MIN TEMP:  25; 6HR MAX TEMP:  27;

ST PAUL        CLOUDY    25  12  58 N15G23    29.86R WCI  13
CRYSTAL        CLOUDY    25  10  53 N14       29.85R WCI  13
BLAINE         CLOUDY    27  14  59 N17G25    29.85R WCI  14
LAKEVILLE      CLOUDY    23  16  74 N14G20    29.83R WCI  11
EDEN PRAIRIE   CLOUDY    25  11  55 N13G23    29.84R WCI  14
6HR MIN TEMP:  25; 6HR MAX TEMP:  28;

SOUTH ST PAUL  CLOUDY    26  12  57 N13G20    29.84R WCI  15
LAKE ELMO      MOCLDY    27  14  59 N8G16     29.84R WCI  18
$$
MNZ001>005-007-008-013>017-022>024-027-028-250100-
   Northwest Minnesota

CITY           SKY/WX    TMP DP  RH WIND       PRES   REMARKS
BEMIDJI        CLEAR     18   6  60 NW15      29.96S WCI   3
HALLOCK        CLEAR     16  10  79 N12       30.12S WCI   3
ROSEAU         CLEAR     16   7  67 NW12      30.05S WCI   3
WARROAD        CLEAR     16   7  67 NW13      30.04R WCI   2
THIEF RVR FALL CLEAR     16  10  77 NW18      30.07S WCI   0
CROOKSTON      CLEAR     18  10  73 N23       30.11R WCI   0
FOSSTON        CLEAR     18   9  68 NW17      30.02S WCI   2
DETROIT LAKES  PTCLDY    21  16  79 NW21G26   30.00S WCI   6
MOORHEAD       MOCLDY    19  14  79 NW21G28   30.08S WCI   3
PARK RAPIDS    CLOUDY    20   6  55 N18       29.94R WCI   5
MAHNOMEN       FAIR      19  12  74 NW16      30.02S WCI   4
$$
MNZ006-009>011-018-025>026-250100-
   North Central Minnesota

CITY           SKY/WX    TMP DP  RH WIND       PRES   REMARKS
BAUDETTE       CLEAR     15   3  59 NW8       29.99S WCI   4
FLAG ISLAND    CLEAR     16   1  53 N13       30.02S WCI   2
INTL FALLS     CLEAR     17   4  56 N10       29.96R WCI   5
6HR MIN TEMP:  15; 6HR MAX TEMP:  20;

WASKISH        CLEAR     18   7  62 N7        29.95F WCI   8
BIG FORK       CLEAR     19   3  49 NW7       29.93S WCI  10
LONGVILLE      CLEAR     19   9  63 NW6       29.93S WCI  11
GRAND RAPIDS   CLEAR     18   7  62 N15       29.91F WCI   4
CRANE LAKE     CLOUDY    16   1  53 N5        29.95S WCI   9
ORR            CLEAR     16   1  53 CALM      29.90S
COOK           PTCLDY    16   3  57 NW6       29.91S WCI   7
WALKER         FAIR      19   6  55 NW15      29.94S WCI   5
$$
MNZ012-019>021-037-250100-
   Northeast Minnesota

CITY           SKY/WX    TMP DP  RH WIND       PRES   REMARKS
DULUTH         PTCLDY    19   9  65 N9        29.84S WCI   8
6HR MIN TEMP:  17; 6HR MAX TEMP:  21;

ELY            CLOUDY    16   1  53 N3        29.88R
HIBBING        CLEAR     17   4  56 N17       29.88S WCI   1
EVELETH        CLOUDY    19  -2  40 N8G17     29.88S WCI   8
DULUTH HARBOR  PTCLDY    25  12  58 N17       29.90S WCI  11
TWO HARBORS    CLEAR     21   9  58 CALM      29.85S
SILVER BAY     CLEAR     18   5  57 N7        29.85S WCI   8
GRAND MARAIS     N/A     20   2  45 VRB3      29.90S
G MARAIS ARPRT CLOUDY    12  -2  52 N10G20    29.80F WCI  -1
$$
MNZ029>031-032-039>041-046>048-054>057-064-250100-
   West Central Minnesota

CITY           SKY/WX    TMP DP  RH WIND       PRES   REMARKS
FERGUS FALLS   MOCLDY    19  12  73 N20G35    30.06R WCI   4
WHEATON        MOCLDY    21  12  68 NW21G30   30.06R WCI   6
MORRIS         CLOUDY    25  16  68 N24G33    29.98R WCI   9
ALEXANDRIA     CLEAR     23  10  57 N15G29    29.95R WCI  10
ELBOW LAKE     CLOUDY    21  14  74 NW21G26   30.00R WCI   6
WADENA         CLEAR     21   9  58 N14       29.95R WCI   8
GLENWOOD       CLEAR     23  12  63 NW22G28   29.94R WCI   8
APPLETON       CLOUDY    25  14  63 N26G35    30.00R WCI   9
BENSON         CLOUDY    27  10  50 N20G29    29.98R WCI  13
ORTONVILLE     CLOUDY    23  12  63 N29G35    30.02R WCI   6
MADISON        CLOUDY    27  16  63 N29G35    30.01R WCI  11
WILLMAR        FAIR      27  16  63 N21       29.93R WCI  13
$$
MNZ033>034-036-042>043-049>051-058-059-250100-
   Central Minnesota

CITY           SKY/WX    TMP DP  RH WIND       PRES   REMARKS
ST CLOUD       CLOUDY    23  10  57 N17G26    29.89R WCI   9
6HR MIN TEMP:  23; 6HR MAX TEMP:  27;

SAUK CENTRE    FAIR      24   8  52 N21G30    29.92R WCI   9
PAYNESVILLE    CLOUDY    25  10  54 N13G21    29.91R WCI  13
AITKIN         CLEAR     23   9  54 NW8       29.89R WCI  14
PINE RIVER     CLEAR     19   9  63 NW12G17   29.96S WCI   7
BRAINERD       CLEAR     20   7  57 N15       29.92R WCI   6
STAPLES        CLEAR     21   9  58 N18G24    29.93R WCI   6
LONG PRAIRIE   FAIR      23  10  58 NW10      29.93R WCI  12
LITTLE FALLS   CLEAR     23   7  50 N8        29.92R WCI  14
LITCHFIELD     CLOUDY    27  10  50 N21G28    29.90R WCI  13
BUFFALO        CLOUDY    24  11  58 NW10G17   29.89R WCI  13
MAPLE LAKE     PTCLDY    25  14  64 N17       29.90R WCI  11
HUTCHINSON     CLEAR     26  13  56 N16G29    29.89R WCI  14
$$
MNZ037-044-045-052-053-250100-
   East Central Minnesota

CITY           SKY/WX    TMP DP  RH WIND       PRES   REMARKS
PRINCETON      CLOUDY    23  12  63 N10G16    29.89R WCI  12
MORA           PTCLDY    21  10  63 N7G17     29.90R WCI  13
CAMBRIDGE      CLOUDY    25  12  58 N13G21    29.86R WCI  13
RUSH CITY      CLOUDY    23  12  63 VRB16G22  29.87S WCI  10
MOOSE LAKE     CLEAR     21  10  63 N10       29.86S WCI  10
HINCKLEY       CLOUDY    23  12  63 N13G22    29.88R WCI  11
CLOQUET        CLEAR     19   9  63 NW9       29.86S WCI   9
MCGREGOR       PTCLDY    21  12  68 NW14      29.89S WCI   8
$$
MNZ071>073-080-081-089-090-097-098-250100-
   Southwest Minnesota

CITY           SKY/WX    TMP DP  RH WIND       PRES   REMARKS
MONTEVIDEO     MOCLDY    25  16  68 N25G32    29.98R WCI   9
GRANITE FALLS  CLOUDY    28  16  62 NW24G31   29.97R WCI  13
CANBY          CLOUDY    26  16  68 NW22G30   30.00R WCI  11
MARSHALL       CLOUDY    24  16  71 N29G37    29.94R WCI   7
REDWOOD FALLS  PTCLDY    27  11  51 N13G21    29.91R WCI  16
OLIVIA         CLOUDY    28  14  54 N20G29    29.91R WCI  15
PIPESTONE      CLOUDY    25  12  58 N23G33    29.94R WCI  10
WINDOM         CLOUDY    23  16  74 NW25G36   29.88R WCI   7
WORTHINGTON    MIX PCPN  22  16  78 N31G37    29.89R WCI   4
JACKSON        CLOUDY    23  16  74 N24G32    29.86R WCI   7
TRACY          CLOUDY    26  17  68 N18G31    29.94R WCI  13
SLAYTON        CLOUDY    23  15  73 N29       29.92R WCI   5
$$
MNZ065>067-074>077-082>085-091>093-250100-
   South Central Minnesota

CITY           SKY/WX    TMP DP  RH WIND       PRES   REMARKS
MANKATO          N/A     24  15  68 N20       29.84R WCI  10
NEW ULM        PTCLDY    25  10  54 N18G28    29.87R WCI  11
ST JAMES       CLOUDY    23  16  74 NW26G35   29.88R HAZE    WCI   6
FAIRMONT       CLOUDY    23  17  78 N23       29.84R WCI   7
GLENCOE        PTCLDY    26  16  65 N20G26    29.87R WCI  12
FARIBAULT      CLOUDY    25  16  68 NW14      29.82R WCI  13
OWATONNA       CLOUDY    23  14  68 N16       29.80R WCI  10
WASECA         CLOUDY    23  14  68 N15       29.83R WCI  10
ALBERT LEA     CLOUDY    23  18  80 N12G17    29.78S WCI  12
$$
MNZ078>079-086>088-094>096-250100-
   Southeast Minnesota

CITY           SKY/WX    TMP DP  RH WIND       PRES   REMARKS
ROCHESTER      FOG       21  20  96 N16       29.75R VSB 3/4 WCI   7
6HR MIN TEMP:  21; 6HR MAX TEMP:  26;

RED WING       CLOUDY    25  12  58 N14G20    29.81R WCI  13
STANTON        CLOUDY    25  15  67 N16G22    29.81R WCI  12
WINONA         LGT SNOW  25  21  86 N12G17    29.76R WCI  14
AUSTIN           N/A     21  18  86 N14G25    29.77R WCI   8
PRESTON        CLOUDY    21  19  89 N17G23    29.72R WCI   7
$$
ABBREVIATIONS USED IN REMARKS
   TC - TEMPERATURES IN CELSIUS
  WCI - WIND CHILL INDEX
   HX - HEAT INDEX
  VSB - VISIBILITY
$$



USA.gov is the U.S. government's official web portal to all federal, state and local government web resources and services.